False Pass, AK

5:50 AM HDT on August 18, 2017 (GMT -0900)
False Pass

Weather History for PAKF - November, 2013

Change the Weather History Date:

Friday, November 1, 2013

  Actual Average (PACD) Record (PACD)
Temperature  
Mean Temperature 40 °F -  
Max Temperature 48 °F 40 °F 52 °F (1994)
Min Temperature 33 °F 31 °F 20 °F (2004)
Degree Days  
Heating Degree Days 24    
Moisture  
Dew Point 38 °F    
Average Humidity 86    
Maximum Humidity 100    
Minimum Humidity 68    
Precipitation  
Precipitation 0.74 in - - ()
Sea Level Pressure  
Sea Level Pressure 29.98 in    
Wind  
Wind Speed 11 mph (SE)    
Max Wind Speed 30 mph    
Max Gust Speed 44 mph    
Visibility 7 miles    
Events Rain    
Averages and records for this station are not official NWS values.
T = Trace of Precipitation, MM = Missing Value Source: NWS Daily Summary

Daily Weather History Graph

Daily Weather History Graph

Search for Another Location

Airport or City:

Trip Planner

Search our weather history database for the weather conditions in past years. The results will help you decide how hot, cold, wet, or windy it might be!

Date:

Astronomy

Nov. 01, 2013 Rise Set
Actual Time 8:57 AM HDT 6:15 PM HDT
Civil Twilight 8:19 AM HDT 6:54 PM HDT
Nautical Twilight 7:36 AM HDT 7:36 PM HDT
Astronomical Twilight 6:54 AM HDT 8:18 PM HDT
Moon 6:48 AM HDT (11/1) 5:27 PM HDT (11/1)
Length of Visible Light 10h 34m
Length of Day
9h 17m
Waning Crescent, 4% of the Moon is Illuminated
Nov 1
Waning Crescent
Nov 3
New
Nov 9
First Quarter
Nov 17
Full
Nov 25
Last Quarter

Hourly Weather History & Observations

Time (HDT) Temp. Windchill Dew Point Humidity Pressure Visibility Wind Dir Wind Speed Gust Speed Precip Events Conditions
12:01 AM 39.0 °F 30.6 °F 32.0 °F 76% 30.34 in 10.0 mi West 15.0 mph - N/A   Clear
1:01 AM 37.9 °F 34.4 °F 30.0 °F 73% 30.36 in 10.0 mi South 4.6 mph - N/A   Clear
2:01 AM 34.0 °F - 30.0 °F 85% 30.38 in 10.0 mi Calm Calm - N/A   Clear
3:01 AM 33.1 °F 28.7 °F 30.0 °F 89% 30.37 in 10.0 mi SSW 4.6 mph - N/A   Clear
3:42 AM 33.8 °F 30.8 °F 30.2 °F 87% 30.08 in 10.0 mi SSW 3.5 mph - N/A   Mostly Cloudy
4:01 AM 33.8 °F 29.6 °F 28.4 °F 81% 30.08 in 10.0 mi SSW 4.6 mph - N/A   Scattered Clouds
4:38 AM 33.8 °F 29.6 °F 30.2 °F 87% 30.09 in 10.0 mi SSW 4.6 mph - N/A   Mostly Cloudy
5:01 AM 35.1 °F - 30.9 °F 85% 30.38 in 10.0 mi Calm Calm - N/A   Overcast
6:01 AM 36.0 °F - 32.0 °F 86% 30.38 in 10.0 mi Calm Calm - N/A   Overcast
6:40 AM 35.6 °F - 32.0 °F 87% 30.09 in 10.0 mi Calm Calm - N/A   Mostly Cloudy
7:01 AM 35.1 °F 30.1 °F 30.9 °F 85% 30.38 in 10.0 mi SSW 5.8 mph - N/A   Clear
8:01 AM 36.0 °F 33.3 °F 32.0 °F 86% 30.37 in 10.0 mi SSE 3.5 mph - N/A   Clear
9:01 AM 37.0 °F 29.3 °F 32.0 °F 82% 30.36 in 10.0 mi ESE 11.5 mph - N/A   Clear
9:48 AM 39.2 °F 31.6 °F 33.8 °F 81% 30.06 in 10.0 mi SE 12.7 mph 18.4 mph N/A   Mostly Cloudy
10:01 AM 39.9 °F 31.8 °F 34.0 °F 79% 30.35 in 10.0 mi SSE 15.0 mph 20.7 mph N/A   Mostly Cloudy
10:14 AM 41.0 °F 34.7 °F 35.6 °F 81% 30.05 in 10.0 mi SSE 10.4 mph 20.7 mph N/A   Scattered Clouds
11:01 AM 41.0 °F 32.8 °F 35.1 °F 79% 30.32 in 10.0 mi South 16.1 mph 23.0 mph 0.00 in   Overcast
11:44 AM 42.8 °F 34.8 °F 33.8 °F 70% 30.01 in 10.0 mi SSE 17.3 mph 27.6 mph 0.00 in   Overcast
11:52 AM 42.8 °F 35.1 °F 33.8 °F 70% 30.01 in 10.0 mi SSE 16.1 mph 27.6 mph 0.00 in   Overcast
12:01 PM 42.1 °F 34.2 °F 35.1 °F 76% 30.29 in 10.0 mi SSE 16.1 mph 25.3 mph 0.00 in   Overcast
12:40 PM 42.8 °F 36.6 °F 35.6 °F 76% 30.00 in 10.0 mi SE 11.5 mph 28.8 mph 0.00 in   Overcast
1:01 PM 43.0 °F 35.1 °F 33.1 °F 68% 30.27 in 10.0 mi SE 17.3 mph 23.0 mph 0.00 in   Overcast
2:01 PM 44.1 °F 37.1 °F 36.0 °F 73% 30.22 in 10.0 mi SE 15.0 mph 29.9 mph N/A   Overcast
3:01 PM 44.1 °F 35.7 °F 39.0 °F 82% 30.16 in 9.0 mi ESE 20.7 mph 32.2 mph 0.01 in Rain Light Rain
4:01 PM 43.0 °F 33.8 °F 39.9 °F 89% 30.11 in 7.0 mi ESE 23.0 mph 32.2 mph 0.07 in Rain Light Rain
5:01 PM 42.8 °F 35.4 °F 41.0 °F 93% 29.76 in 4.0 mi SE 15.0 mph 34.5 mph 0.15 in Rain Light Rain
5:07 PM 43.0 °F 34.8 °F 41.0 °F 93% 30.03 in 5.0 mi ESE 18.4 mph 28.8 mph 0.16 in Rain Light Rain
5:35 PM 44.6 °F 35.5 °F 42.8 °F 93% 29.71 in 2.0 mi East 25.3 mph 33.4 mph 0.06 in Rain Light Rain
6:01 PM 44.6 °F 36.4 °F 42.8 °F 93% 29.69 in 3.0 mi East 20.7 mph 28.8 mph 0.12 in Rain Rain
6:07 PM 44.1 °F 35.2 °F 42.1 °F 93% 29.97 in 3.0 mi East 23.0 mph 29.9 mph 0.13 in Rain Rain
6:21 PM 44.6 °F 38.1 °F 42.8 °F 93% 29.67 in 2.5 mi East 13.8 mph 27.6 mph 0.04 in Rain Light Rain
6:49 PM 44.6 °F 37.2 °F 42.8 °F 93% 29.63 in 3.0 mi East 17.3 mph 26.5 mph 0.07 in Rain Light Rain
6:57 PM 44.6 °F 37.4 °F 42.8 °F 93% 29.62 in 3.0 mi East 16.1 mph 29.9 mph 0.08 in Rain Rain
7:01 PM 45.0 °F 37.9 °F 43.0 °F 93% 29.89 in 4.0 mi East 16.1 mph 29.9 mph 0.08 in Rain Rain
7:19 PM 44.6 °F 36.9 °F 42.8 °F 93% 29.59 in 3.0 mi East 18.4 mph 27.6 mph 0.02 in Rain Light Rain
7:33 PM 46.4 °F 40.4 °F 42.8 °F 87% 29.57 in 4.0 mi East 13.8 mph 31.1 mph 0.03 in Rain Light Rain
8:01 PM 46.0 °F 37.6 °F 44.1 °F 93% 29.81 in 3.0 mi East 24.2 mph 33.4 mph 0.09 in Rain Light Rain
9:01 PM 46.9 °F - 46.0 °F 97% 29.73 in 5.0 mi ESE 29.9 mph 43.7 mph 0.02 in Rain Light Rain
9:19 PM 46.4 °F 39.0 °F 46.4 °F 100% 29.43 in 3.0 mi ESE 19.6 mph 36.8 mph 0.02 in Rain Rain
10:01 PM 48.9 °F - 46.9 °F 93% 29.68 in 6.0 mi SSE 21.9 mph 38.0 mph 0.08 in Rain Rain
10:09 PM 48.2 °F - 46.4 °F 93% 29.41 in 7.0 mi SSE 16.1 mph 32.2 mph 0.01 in Rain Rain
10:29 PM 48.2 °F - 46.4 °F 93% 29.40 in 5.0 mi SE 17.3 mph 34.5 mph 0.05 in Rain Light Rain
11:01 PM 48.9 °F - 46.0 °F 90% 29.66 in 7.0 mi South 19.6 mph 34.5 mph 0.10 in Rain Light Rain
11:50 PM 48.2 °F - 44.6 °F 87% 29.38 in 5.0 mi SSE 16.1 mph 34.5 mph 0.09 in Rain Rain